Regional Weather Roundup
Issued by NWS

Home | Current Version | Previous Version | Graphics & Text | Print | Product List | Glossary On
Versions: 1 2 3 4 5 6 7 8 9 10 11 12 13 14 15 16 17 18 19 20 21 22 23 24 25 26 27 28 29 30 31 32 33 34 35 36 37 38 39 40 41 42 43 44 45 46 47 48 49 50
868
ASUS43 KMKX 201521
RWRWI

WISCONSIN REGIONAL WEATHER ROUNDUP
NATIONAL WEATHER SERVICE MILWAUKEE/SULLIVAN WI
900 AM CST MON FEB 20 2017

NOTE: "FAIR" INDICATES FEW OR NO CLOUDS BELOW 12,000 FEET WITH NO
SIGNIFICANT WEATHER AND/OR OBSTRUCTIONS TO VISIBILITY.

WIZ001-002-006>008-014>016-023>028-201600-
NORTHWEST WISCONSIN

CITY           SKY/WX    TMP DP  RH WIND       PRES   REMARKS
SUPERIOR ARPT  CLOUDY    37  34  92 E8        29.89F WCI  30
ASHLAND        CLOUDY    47  36  65 VRB3      29.91F
HAYWARD        CLOUDY    47  37  68 VRB6G17   29.90F
SIREN          CLOUDY    47  38  71 SE8       29.85F
CUMBERLAND     CLOUDY    41  34  75 SE15      29.89S
RICE LAKE      CLOUDY    45  38  76 E13       29.91S
CHETEK         CLOUDY    44  38  78 SE12G18   29.91F
LADYSMITH      CLOUDY    46  39  77 E9        29.94F
EAU CLAIRE     CLOUDY    46  39  76 E8        29.90S
MENOMONIE      CLOUDY    43  38  83 E6        29.89F
NEW RICHMOND   CLOUDY    47  40  76 SE7       29.84F
OSCEOLA        CLOUDY    48  41  76 SE10      29.86F
$$

WIZ003>005-009-010-017-018-201600-
NORTH CENTRAL WISCONSIN

CITY           SKY/WX    TMP DP  RH WIND       PRES   REMARKS
MANITOWISH WTR CLOUDY    42  32  68 SE6       30.00F
ARBOR VITAE    CLOUDY    42  32  67 SE12G17   30.01F
WOODRUFF       CLOUDY    42  32  67 SE12G17   30.01F
RHINELANDER    CLOUDY    41  32  70 SE12      30.05F
EAGLE RIVER    CLOUDY    40  28  60 SE10G17   30.05F WCI  34
LAND O LAKES   CLOUDY    42  30  62 SE8G16    30.06F
PHILLIPS       CLOUDY    43  36  75 SE9       29.96F
TOMAHAWK       CLOUDY    41  32  69 SE5       30.02F
MEDFORD        CLOUDY    40  32  74 SE12G20   29.97F WCI  33
MERRILL        NOT AVBL
$$

WIZ029-030-035-036-043>047-201600-
CENTRAL WISCONSIN

CITY           SKY/WX    TMP DP  RH WIND       PRES   REMARKS
WAUSAU         CLOUDY    39  31  72 E10       30.02F WCI  32
MOSINEE        CLOUDY    39  32  75 E10G18    30.03F WCI  32
MARSHFIELD     CLOUDY    41  35  79 E10       29.98F
STEVENS POINT  CLOUDY    38  31  74 E10       30.04F WCI  32
WAUPACA        CLOUDY    46  33  59 CALM      30.06F
WAUTOMA        MOSUNNY   42  35  76 CALM      30.05F
WISC RAPIDS    PTSUNNY   47  39  74 SE8       30.01F
CAMP DOUGLAS   MOSUNNY   49  42  76 SE12      29.97F
$$

WIZ011>013-019>022-031-037>040-048>050-201600-
NORTHEAST WISCONSIN

CITY           SKY/WX    TMP DP  RH WIND       PRES   REMARKS
ANTIGO         CLOUDY    37  31  79 SE15G21   30.07F WCI  28
SHAWANO        CLOUDY    37  33  84 NE6       30.10F WCI  33
OCONTO         MOSUNNY   40  33  75 E6        30.13F
STURGEON BAY   CLOUDY    41  34  76 SE12      30.16
GREEN BAY      CLOUDY    45  34  65 E8        30.11F
MANITOWOC      MOSUNNY   40  34  79 MISG      30.15F
APPLETON       PTSUNNY   43  30  61 E8        30.07F
CLINTONVILLE   CLOUDY    39  32  75 E6        30.08F WCI  35
OSHKOSH        PTSUNNY   44  37  76 SE9       30.06F
$$

WIZ032>034-041-042-053>061-201600-
SOUTHWEST WISCONSIN

CITY           SKY/WX    TMP DP  RH WIND       PRES   REMARKS
LA CROSSE      PTSUNNY   54  46  74 SE14      29.93S
SPARTA         CLOUDY    54  48  81 SE6       29.95S
VIROQUA        CLOUDY    49  47  91 SE16      29.95S
BOSCOBEL       PTSUNNY   53  47  79 VRB3      29.99S HAZE
PRAIRIE DU CHI CLOUDY    49  45  85 E7        29.95F FOG
PLATTEVILLE    CLOUDY    47  47 100 SE8       30.02R
$$

WIZ056-057-062-063-064-067-068-201600-
SOUTH CENTRAL WISCONSIN

CITY           SKY/WX    TMP DP  RH WIND       PRES   REMARKS
REEDSBURG      MOSUNNY   53  48  84 SE7       29.98F
BARABOO/DELLS  MOSUNNY   50  44  79 SE7       30.00F HAZE
LONE ROCK      PTSUNNY   51  45  79 E7        30.01S HAZE
MINERAL POINT  CLOUDY    50  50 100 SE15      30.02R FOG
MADISON        PTSUNNY   47  42  83 SE9       30.03F
MIDDLETON      MOSUNNY   51  46  82 SE10      30.02F
WATERTOWN      CLOUDY    49  45  85 SE10      30.06F
MONROE         PTSUNNY   46  45  93 SE8       30.03S FOG
JANESVILLE     CLOUDY    52  48  87 SE9       30.05F FOG
$$

WIZ051-052-058>065-066-070>072-201600-
SOUTHEAST WISCONSIN

CITY           SKY/WX    TMP DP  RH WIND       PRES   REMARKS
MILWAUKEE      PTSUNNY   46  39  76 SE8       30.12F
WAUKESHA       MOSUNNY   48  45  87 SE7       30.10F FOG
MILWAUKEE/TIMM SUNNY     43  36  75 CALM      30.12F
RACINE         CLOUDY    46  39  76 SE10      30.13F
KENOSHA        MOSUNNY   50  44  80 SE10      30.12F HAZE
FOND DU LAC    CLOUDY    46  37  71 SE13      30.06F
SHEBOYGAN      MOSUNNY   41  32  70 SE6       30.13F
WEST BEND      MOSUNNY   43  37  81 CALM      30.11F
JUNEAU         CLOUDY    48  43  82 SE13      30.07F
$$

LSZ147-162-201600-
LAKE SUPERIOR

STATION/POSITION TIME  TEMP    WIND        PRES    WAVE
                       AIR SEA DIR/SP/G            HT/PER
                 (UTC) (F)     (DEG/KT/KT) (MB)    (FT/S)
DEVILS ISLAND    1500   46     130/  7/  8 1013.5F
PORT WING        1440   35     330/  1/  3 1012.5F
SAXON HARBOR     1440   50     170/  8/ 19 1012.9F
$$

LMZ867-665-643>646-201600-
LAKE MICHIGAN

STATION/POSITION TIME  TEMP    WIND        PRES    WAVE
                       AIR SEA DIR/SP/G            HT/PER
                 (UTC) (F)     (DEG/KT/KT) (MB)    (FT/S)
CHAMBERS ISLAND  1440   41     100/  5/ 10 1021.3S
NORTHPORT PIER   1440   36     140/  7/ 10 1022.0F
SISTER BAY       1420   43     120/ 11/ 16   N/A
ALGOMA LAKESHORE 1440             CALM       N/A
KEWAUNEE LAKESHO 1454   39     150/  2/  5 1020.6F
SHEBOYGAN LAKESH 1500   39     170/ 10/ 10 1021.0F
PORT WASHINGTON  1430   40      90/  2/  4 1021.3F
MILWAUKEE LAKESH 1500   39     100/  2/  3   N/A
KENOSHA   LAKESH 1500   40     180/  4/  6 1020.3
$$

TC  - TEMPERATURE IN CELSIUS
VSB - VISIBILITY IN STATUTE MILES
WCI - WIND CHILL INDEX
HX  - HEAT INDEX





USA.gov is the U.S. government's official web portal to all federal, state and local government web resources and services.